Flag for Barbados Weather past 2 weeks in Bridgetown, Barbados

Now
81 °F

Passing clouds.


Feels Like: 87 °F
Forecast: 80 / 87 °F
Wind: 17 mph from Northeast

Location: Grantley Adams

Current Time: Aug 3, 2015 at 10:01:55 PM

Latest Report: Aug 3, 2015 at 9:00 PM


Visibility: N/A

Pressure: 29.98 "Hg

Humidity: 89%

Dew point: 77 °F

Location of BridgetownLocation

Historic Weather in Bridgetown — Graph

°F

Bridgetown temperature yesterday

Maximum temperature yesterday: 88 °F (at 12:00 PM)
Minimum temperature yesterday: 77 °F (at 1:00 AM)
Average temperature yesterday: 81 °F

Past Weeks' High & Low Weather Summary

 TemperatureHumidityPressure
High88 °F (Jul 22, 1:00 PM)100% (Jul 30, 11:00 PM)30.07 "Hg (Jul 30, 11:00 PM)
Low77 °F (Jul 20, 4:00 AM)62% (Jul 28, 10:00 AM)29.89 "Hg (Aug 1, 5:00 PM)
Average82 °F79%29.98 "Hg
* Reported Jul 19 9:00 PM — Aug 3 9:00 PM, Bridgetown, Weather by CustomWeather, © 2015

Note: Actual official high and low records may vary slightly from our data, if they occured in-between our weather recording intervals... More about our weather records

Advertising

Bridgetown weather history for previous 24 hours

 ConditionsComfort  
Time TempWeatherWind HumidityBarometerVisibility
9:00 PM
Mon, Aug 3
81 °FPassing clouds.17 mph89%29.98 "HgN/A
8:00 PM79 °FScattered showers. Partly cloudy.18 mph94%29.95 "HgN/A
7:00 PM79 °FLight rain. Partly cloudy.18 mph94%N/AN/A
6:00 PM79 °FBroken clouds.17 mph94%29.95 "HgN/A
5:00 PM79 °FSprinkles. Broken clouds.17 mph94%29.95 "HgN/A
4:00 PM82 °FPartly sunny.16 mph84%29.92 "HgN/A
3:00 PM82 °FSprinkles. Broken clouds.21 mph84%29.92 "HgN/A
2:00 PM84 °FBroken clouds.22 mph79%29.95 "HgN/A
1:00 PM84 °FSprinkles. Broken clouds.23 mph79%29.95 "HgN/A
12:00 PM82 °FSprinkles. Partly sunny.26 mph84%29.98 "Hg6 mi
11:00 AM82 °FPartly sunny.22 mph89%29.98 "HgN/A
10:00 AM84 °FBroken clouds.25 mph79%29.98 "HgN/A
9:00 AM82 °FScattered showers. Broken clouds.21 mph89%29.95 "HgN/A
8:00 AM82 °FBroken clouds.24 mph79%29.95 "HgN/A
7:00 AM81 °FBroken clouds.17 mph89%29.95 "Hg4 mi
6:00 AM81 °FLots of rain. Overcast.24 mph84%29.92 "Hg1 mi
5:00 AM81 °FPassing clouds.21 mph84%29.92 "HgN/A
4:00 AM81 °FPassing clouds.17 mph84%29.92 "HgN/A
3:00 AM81 °FPassing clouds.16 mph84%29.92 "HgN/A
2:00 AM81 °FPassing clouds.20 mph84%29.92 "HgN/A
1:00 AM81 °FPassing clouds.18 mph89%29.95 "HgN/A
12:00 AM81 °FPassing clouds.21 mph89%29.95 "HgN/A
11:00 PM
Sun, Aug 2
81 °FPassing clouds.20 mph84%29.98 "HgN/A
10:00 PM81 °FPassing clouds.17 mph89%29.95 "HgN/A
Weather by CustomWeather, © 2015

See weather overviewHow to use our weather pages